COSMOS 2251

Last updated on Tue Sep 22 2026 00:02:46 GMT+0000 (Coordinated Universal Time)

1 22675U 93036A 26264.15498889 .00000020 00000+0 16513-4 0 9996 2 22675 74.0400 159.8537 0024778 178.3390 181.7849 14.33269916738196
UTC large
Height (km)
Speed (km/s)
/
Latitude / Longitude
Inclination (degrees)
Orbital Period (minutes)
Azimuth
Elevation
Range (km)
Doppler Factor

Next 0 passes for location: London (51.5072 / 0.1276)

No passes found over London.
COSMOS 2251